Content
SEND FEEDBACK

Daily
Averages
Monthly
Summary
United States of America

FLORENCE, SOUTH CAROLINA


Home > North America > United States > South Carolina
Elevation: 115 feet     Latitude: 34 11N     Longitude: 079 43W

WEATHER
 
SELECT A DAY
Number of Records: 199,706;   Date Range: 1/1/95 - 7/23/14
 
SHARE

PRINT THIS DATA

[ ← Previous Day ]
WEATHER ALMANAC - JANUARY 31, 2013
[ Next Day → ]
[ °C ]   °F
Weather ElementAverageHighLow
Temperature50.2 °F55.4 °F (1:19 am)43 °F (11:53 pm)
Dewpoint31.7 °F51.8 °F (1:19 am)18 °F (2:53 pm)
Humidity53 %88 % (1:19 am)23 % (2:53 pm)
Barometer29.88 in30.12 in (11:53 pm)29.65 in (1:19 am)
Wind Speed15.1 mph27.6 mph (4:53 am)
Wind Gust44.9 mph (4:53 am)
Weather ElementAverage
Visibility9.9 mi
Wind DirectionWSW (257.2 °)

Weather ElementTotal
Precipitation0.21 in
Heating Degree Days15.8 (Base 65)
Averaged from 25 records on January 31, 2013
WEATHER CONDITIONS BREAKOUT
WIND DIRECTION BREAKOUT
WEATHER BY HOUR - JANUARY 31, 2013
[ °C ]   °F
Local TimeTemperatureDewpointHumidityBarometerVisibilityWind DirectionWind SpeedGust SpeedPrecipitationEventsConditions
1:19 AM55.4 °F51.8 °F88 %29.65 in7.0 miWSW (250°)11.5 mph23.0 mph0.07 inRainLight Rain
1:28 AM55.4 °F51.8 °F88 %29.65 in10.0 miWSW (240°)12.7 mph19.6 mph0.07 inOvercast
1:53 AM54.0 °F50.0 °F86 %29.66 in10.0 miSW (230°)18.4 mph25.3 mph0.07 inOvercast
2:10 AM53.6 °F48.2 °F82 %29.68 in10.0 miSW (230°)16.1 mph24.2 mphOvercast
2:28 AM53.6 °F48.2 °F82 %29.68 in10.0 miWSW (240°)18.4 mph24.2 mphOvercast
2:53 AM53.1 °F46.9 °F80 %29.68 in10.0 miWSW (240°)11.5 mph20.7 mphOvercast
3:53 AM53.1 °F46.0 °F77 %29.70 in10.0 miWSW (240°)16.1 mph25.3 mphOvercast
4:53 AM50.0 °F34.0 °F54 %29.73 in10.0 miWest (270°)27.6 mph44.9 mphMostly Cloudy
5:53 AM46.9 °F34.0 °F61 %29.77 in10.0 miWSW (250°)19.6 mph29.9 mphScattered Clouds
6:53 AM46.0 °F30.9 °F56 %29.83 in10.0 miWest (260°)15.0 mph24.2 mphClear
7:53 AM45.0 °F28.9 °F53 %29.86 in10.0 miWest (270°)16.1 mph33.4 mphClear
8:53 AM46.0 °F28.9 °F51 %29.92 in10.0 miWest (260°)19.6 mph27.6 mphClear
9:53 AM48.0 °F28.0 °F46 %29.95 in10.0 miWest (260°)19.6 mph25.3 mphClear
10:53 AM48.9 °F27.0 °F43 %29.96 in10.0 miWest (270°)17.3 mph26.5 mphClear
11:53 AM51.1 °F26.1 °F38 %29.95 in10.0 miWest (280°)13.8 mph20.7 mphClear
1:53 PM55.0 °F19.9 °F25 %29.93 in10.0 miWest (280°)16.1 mph26.5 mphClear
2:53 PM55.0 °F18.0 °F23 %29.94 in10.0 miWest (280°)21.9 mph29.9 mphClear
3:53 PM55.0 °F19.0 °F24 %29.96 in10.0 miWest (260°)15.0 mph24.2 mphClear
4:53 PM53.1 °F19.0 °F26 %29.99 in10.0 miWest (280°)11.5 mph24.2 mphClear
5:53 PM50.0 °F19.0 °F29 %30.02 in10.0 miWNW (290°)15.0 mph25.3 mphClear
6:53 PM48.0 °F21.9 °F36 %30.04 in10.0 miWest (270°)8.1 mphClear
7:53 PM46.0 °F23.0 °F40 %30.06 in10.0 miWSW (240°)5.8 mphClear
8:53 PM44.1 °F24.1 °F45 %30.07 in10.0 miWSW (240°)9.2 mphClear
9:53 PM45.0 °F24.1 °F44 %30.10 in10.0 miWSW (250°)9.2 mphClear
11:53 PM43.0 °F24.1 °F47 %30.12 in10.0 miWSW (250°)11.5 mphClear
Hourly data recorded from KFLO, located miles away from Florence, South Carolina







STORIES FROM OUR PARTNERS